Location: Hilliard
(41.1377°N, 110.8115°W)
Time: 21:09:29
(UTC+00:00)

BlueWalker 3 - Visible Passes

Search period start: 30 November 2023 00:00
Search period end: 10 December 2023 00:00
Orbit: 489 x 504 km, 53.2° (Epoch: 29 November)

Date Brightness Start Highest point End Pass type
(mag) Time Alt. Az. Time Alt. Az. Time Alt. Az.
30 Nov 3.6 12:38:31 21° N 12:39:29 23° NNE 12:42:36 10° ENE visible
01 Dec 3.8 12:16:56 23° NNE 12:16:56 23° NNE 12:19:58 10° ENE visible
01 Dec 1.9 13:51:47 10° NW 13:55:37 76° SW 13:59:24 10° SE visible
02 Dec 4.2 11:55:24 20° NE 11:55:24 20° NE 11:57:21 10° ENE visible
02 Dec 1.9 13:29:58 16° NW 13:32:59 77° SW 13:36:47 10° SE visible
03 Dec 4.9 11:33:54 14° ENE 11:33:54 14° ENE 11:34:42 10° ENE visible
03 Dec 1.8 13:08:27 28° WNW 13:10:21 78° SW 13:14:09 10° SE visible
04 Dec 1.8 12:47:00 57° WNW 12:47:42 79° SW 12:51:30 10° SE visible
05 Dec 2.2 12:25:36 62° SSE 12:25:36 62° SSE 12:28:50 10° SE visible
06 Dec 3.7 12:04:15 28° SE 12:04:15 28° SE 12:06:09 10° SE visible
07 Dec 4.8 11:42:58 13° SE 11:42:58 13° SE 11:43:26 10° SE visible
07 Dec 4.3 13:17:33 10° SW 13:17:33 10° SW 13:17:43 10° SW visible
